User: anonymous   Login
Location: Niedergestelen
(46.3129°N, 7.7822°E)
Time: 18:32:44
(UTC+00:00)
Language:

FENGYUN 1C DEB - Orbit

View from above orbital plane
View from above orbital plane
View from above satellite
View from above satellite

Ground track
Ground track

The orbit data is extracted from the following two-line orbital elements,

1 30975U 99025BBR 21172.19578202  .00000582  00000-0  23210-3 0  9992
2 30975  99.0380 312.3421 0214969 338.4618  20.7616 14.20889083737221
Epoch (UTC): 21 June 2021 04:41:55
Eccentricity: 0.0214969
inclination: 99.0380°
perigee height: 667 km
apogee height: 977 km
right ascension of ascending node: 312.3421°
argument of perigee: 338.4618°
revolutions per day: 14.20889083
mean anomaly at epoch: 20.7616°
orbit number at epoch: 73722

The dashed part of the orbit path shows where the satellite is in the earth's shadow,  

DLR